Location: San Pelegr�n
(42.1868°N, 0.0079°E)
Time: 04:03:06
(UTC+00:00)

CZ-4 R/B - Pass Details

Date: 24 January 2020
Orbit: 534 x 597 km, 97.7° (Epoch: 18 February)

Event Time Altitude Azimuth Distance (km) Brightness Sun altitude
Rises 18:59:39 0° 190° (S) 2,744 5.1 -21.4°
Reaches altitude 10° 19:01:57 10° 201° (SSW) 1,864 4.3 -21.8°
Maximum altitude 19:05:33 31° 264° (W) 1,029 3.3 -22.5°
Drops below altitude 10° 19:09:15 10° 327° (NNW) 1,911 4.4 -23.2°
Sets 19:11:38 0° 338° (NNW) 2,825 5.2 -23.6°
